Cut Bank, MT

3:09 AM MDT on April 24, 2017 (GMT -0600)
Cut Bank Municipal

Weather History for KCTB - July, 2014

Change the Weather History Date:

Thursday, July 3, 2014

  Actual Average Record
Temperature  
Mean Temperature 70 °F 62 °F  
Max Temperature 87 °F 76 °F 94 °F (1922)
Min Temperature 52 °F 48 °F 34 °F (1979)
Degree Days  
Heating Degree Days 0 4  
Month to date heating degree days 3 14  
Since 1 June heating degree days 276 247  
Since 1 July heating degree days 3 14  
Cooling Degree Days 5 1  
Month to date cooling degree days 6 3  
Year to date cooling degree days 7 20  
Since 1 June cooling degree days 7 18  
Growing Degree Days 20 (Base 50)    
Moisture  
Dew Point 50 °F    
Average Humidity 53    
Maximum Humidity 77    
Minimum Humidity 29    
Precipitation  
Precipitation 0.00 in 0.06 in 1.31 in (1956)
Month to date precipitation 0.00 0.17  
Year to date precipitation 10.73 6.36  
Snow  
Snow 0.00 in - - ()
Snow Depth 0.00 in    
Sea Level Pressure  
Sea Level Pressure 29.85 in    
Wind  
Wind Speed 7 mph (WSW)    
Max Wind Speed 17 mph    
Max Gust Speed 25 mph    
Visibility 10 miles    
Events      
T = Trace of Precipitation, MM = Missing Value Source: NWS Daily Summary

Daily Weather History Graph

Daily Weather History Graph

Search for Another Location

Airport or City:

Trip Planner

Search our weather history database for the weather conditions in past years. The results will help you decide how hot, cold, wet, or windy it might be!

Date:

Astronomy

Jul. 03, 2014 Rise Set
Actual Time 5:32 AM MDT 9:34 PM MDT
Civil Twilight 4:50 AM MDT 10:16 PM MDT
Nautical Twilight 3:52 AM MDT 11:14 PM MDT
Astronomical Twilight 2:09 AM MDT 12:55 AM MDT
Moon 12:07 PM MDT (7/3) 12:00 AM MDT (7/3)
Length of Visible Light 17h 25m
Length of Day
16h 01m
Waxing Crescent, 33% of the Moon is Illuminated
Jul 3
Waxing Crescent
Jul 5
First Quarter
Jul 12
Full
Jul 18
Last Quarter
Jul 26
New

Hourly Weather History & Observations

Time (MDT) Temp. Dew Point Humidity Pressure Visibility Wind Dir Wind Speed Gust Speed Precip Events Conditions
12:56 AM 64.0 °F 46.0 °F 52% 29.87 in 10.0 mi South 3.5 mph - N/A   Clear
1:56 AM 57.9 °F 46.9 °F 67% 29.87 in 10.0 mi Calm Calm - N/A   Clear
2:56 AM 55.9 °F 46.9 °F 72% 29.87 in 10.0 mi ENE 4.6 mph - N/A   Clear
3:56 AM 55.0 °F 46.9 °F 74% 29.87 in 10.0 mi ENE 8.1 mph - N/A   Clear
4:56 AM 55.9 °F 46.9 °F 72% 29.88 in 10.0 mi East 4.6 mph - N/A   Clear
5:56 AM 53.1 °F 46.9 °F 80% 29.87 in 10.0 mi NE 4.6 mph - N/A   Clear
6:56 AM 55.9 °F 48.0 °F 75% 29.88 in 10.0 mi Calm Calm - N/A   Clear
7:56 AM 61.0 °F 48.9 °F 64% 29.87 in 10.0 mi ESE 5.8 mph - N/A   Clear
8:56 AM 64.0 °F 46.9 °F 54% 29.86 in 10.0 mi Calm Calm - N/A   Clear
9:56 AM 69.1 °F 52.0 °F 54% 29.87 in 10.0 mi SSE 8.1 mph - N/A   Clear
10:56 AM 73.9 °F 54.0 °F 50% 29.87 in 10.0 mi SSE 5.8 mph - N/A   Clear
11:56 AM 75.0 °F 55.0 °F 50% 29.88 in 10.0 mi West 8.1 mph - N/A   Partly Cloudy
12:56 PM 75.9 °F 57.0 °F 52% 29.85 in 10.0 mi NE 8.1 mph - N/A   Partly Cloudy
1:56 PM 82.9 °F 50.0 °F 32% 29.85 in 10.0 mi West 4.6 mph - N/A   Clear
2:56 PM 84.9 °F 50.0 °F 30% 29.84 in 10.0 mi SSW 4.6 mph - N/A   Clear
3:56 PM 84.0 °F 48.0 °F 28% 29.83 in 10.0 mi West 11.5 mph - N/A   Partly Cloudy
4:56 PM 86.0 °F 52.0 °F 31% 29.82 in 10.0 mi NNW 9.2 mph - N/A   Clear
5:56 PM 84.9 °F 50.0 °F 30% 29.82 in 10.0 mi West 10.4 mph - N/A   Clear
6:56 PM 82.9 °F 50.0 °F 32% 29.80 in 10.0 mi WNW 10.4 mph - N/A   Clear
7:56 PM 80.1 °F 52.0 °F 38% 29.79 in 10.0 mi WNW 6.9 mph - N/A   Partly Cloudy
8:56 PM 73.9 °F 52.0 °F 46% 29.80 in 10.0 mi SW 6.9 mph - N/A   Clear
9:56 PM 71.1 °F 48.0 °F 44% 29.81 in 10.0 mi WSW 9.2 mph - N/A   Clear
10:56 PM 69.1 °F 48.9 °F 49% 29.81 in 10.0 mi WSW 11.5 mph - N/A   Clear
11:56 PM 64.9 °F 50.0 °F 58% 29.83 in 10.0 mi WSW 10.4 mph - N/A   Clear